Tiempo cada hora Dalarna County

Hoy, 30 Noviembre, Lunes

Tiempo Temperatura Precipitaciones Viento Presión Humedad
00:00 -4°C° 0 mm 1 mps 739 mmHg 93%
01:00 -4°C° 0 mm 1 mps 738 mmHg 93%
02:00 -4°C° 0 mm 1 mps 738 mmHg 92%
03:00 -4°C° 0 mm 1 mps 737 mmHg 91%
04:00 -4°C° 0 mm 1 mps 736 mmHg 90%
05:00 -4°C° 0 mm 1 mps 736 mmHg 88%
06:00 -6°C° 0 mm 2 mps 735 mmHg 87%
07:00 -5°C° 0 mm 2 mps 735 mmHg 85%
08:00 -4°C° 0 mm 2 mps 734 mmHg 87%
09:00 -4°C° 0 mm 2 mps 734 mmHg 89%
10:00 -3°C° 0 mm 2 mps 733 mmHg 90%
11:00 -3°C° 0 mm 2 mps 732 mmHg 91%
12:00 -2°C° 0 mm 3 mps 732 mmHg 91%
13:00 -2°C° 0 mm 3 mps 731 mmHg 92%
14:00 -1°C° 0 mm 2 mps 731 mmHg 92%
15:00 -1°C° 0 mm 2 mps 730 mmHg 92%
16:00 -1°C° 0 mm 2 mps 729 mmHg 93%
17:00 -1°C° 0.1 mm 2 mps 729 mmHg 94%
18:00 -1°C° 0.1 mm 2 mps 729 mmHg 95%
19:00 +1°C° 0.1 mm 2 mps 729 mmHg 96%
20:00 +1°C° 0.4 mm 2 mps 729 mmHg 97%
21:00 +1°C° 0.4 mm 2 mps 729 mmHg 97%
22:00 +1°C° 0.4 mm 2 mps 730 mmHg 98%
23:00 +1°C° 0.6 mm 2 mps 730 mmHg 98%

Mañana, 1 Diciembre, Martes

Tiempo Temperatura Precipitaciones Viento Presión Humedad
00:00 +1°C° 0.6 mm 2 mps 730 mmHg 98%
01:00 +1°C° 0.6 mm 2 mps 731 mmHg 98%
02:00 +2°C° 0.4 mm 1 mps 731 mmHg 98%
03:00 +1°C° 0.4 mm 1 mps 731 mmHg 97%
04:00 +1°C° 0.4 mm 1 mps 732 mmHg 97%
05:00 +1°C° 0 mm 1 mps 733 mmHg 96%
06:00 +1°C° 0 mm 1 mps 733 mmHg 95%
07:00 +1°C° 0 mm 1 mps 734 mmHg 95%
08:00 +1°C° 0 mm 1 mps 735 mmHg 93%
09:00 +1°C° 0 mm 1 mps 735 mmHg 90%
10:00 +1°C° 0 mm 1 mps 736 mmHg 88%
11:00 +1°C° 0 mm 1 mps 737 mmHg 86%
12:00 +1°C° 0 mm 1 mps 738 mmHg 83%
13:00 +1°C° 0 mm 1 mps 738 mmHg 81%
14:00 +1°C° 0 mm 1 mps 738 mmHg 81%
15:00 0°C° 0 mm 1 mps 739 mmHg 82%
16:00 0°C° 0 mm 1 mps 739 mmHg 83%
17:00 -2°C° 0 mm 0 mps 740 mmHg 82%
18:00 -2°C° 0 mm 0 mps 740 mmHg 81%
19:00 -2°C° 0 mm 0 mps 740 mmHg 80%
20:00 -2°C° 0 mm 0 mps 741 mmHg 80%
21:00 -2°C° 0 mm 0 mps 741 mmHg 80%
22:00 -2°C° 0 mm 0 mps 741 mmHg 81%
23:00 -1°C° 0 mm 1 mps 741 mmHg 82%

Pasado mañana, 2 Diciembre, Miércoles

Tiempo Temperatura Precipitaciones Viento Presión Humedad
00:00 -1°C° 0 mm 1 mps 740 mmHg 83%
01:00 -1°C° 0 mm 1 mps 740 mmHg 84%
02:00 -1°C° 0 mm 1 mps 740 mmHg 84%
03:00 -1°C° 0 mm 1 mps 739 mmHg 84%
04:00 -3°C° 0 mm 2 mps 739 mmHg 84%
05:00 -3°C° 0 mm 2 mps 739 mmHg 85%
06:00 -2°C° 0 mm 2 mps 739 mmHg 86%
07:00 -1°C° 0 mm 2 mps 738 mmHg 87%
08:00 -1°C° 0 mm 3 mps 738 mmHg 90%
09:00 -1°C° 0 mm 3 mps 738 mmHg 92%
10:00 0°C° 0 mm 3 mps 737 mmHg 95%
11:00 -1°C° 0 mm 4 mps 737 mmHg 95%
12:00 -1°C° 0 mm 4 mps 736 mmHg 95%
13:00 -1°C° 0 mm 4 mps 736 mmHg 95%
14:00 -1°C° 0 mm 5 mps 736 mmHg 94%
15:00 -1°C° 0 mm 5 mps 735 mmHg 92%
16:00 -1°C° 0 mm 5 mps 734 mmHg 91%
17:00 -1°C° 0.1 mm 5 mps 734 mmHg 91%
18:00 -2°C° 0.1 mm 5 mps 734 mmHg 91%
19:00 -2°C° 0.1 mm 5 mps 734 mmHg 91%
20:00 -2°C° 0 mm 5 mps 734 mmHg 90%
21:00 -2°C° 0 mm 4 mps 733 mmHg 89%
22:00 -2°C° 0 mm 4 mps 733 mmHg 88%
23:00 -2°C° 0 mm 4 mps 733 mmHg 89%

3 Diciembre, Jueves

Tiempo Temperatura Precipitaciones Viento Presión Humedad
00:00 -2°C° 0 mm 4 mps 732 mmHg 90%
01:00 -2°C° 0 mm 4 mps 732 mmHg 91%
02:00 -2°C° 0.1 mm 4 mps 731 mmHg 92%
03:00 -2°C° 0.1 mm 4 mps 731 mmHg 93%
04:00 -2°C° 0.1 mm 4 mps 731 mmHg 94%
05:00 -2°C° 0.1 mm 4 mps 730 mmHg 93%
06:00 -3°C° 0.1 mm 4 mps 730 mmHg 92%
07:00 -3°C° 0.1 mm 4 mps 730 mmHg 91%
08:00 -3°C° 0.2 mm 4 mps 729 mmHg 92%
09:00 -3°C° 0.2 mm 4 mps 729 mmHg 93%
10:00 -3°C° 0.2 mm 4 mps 729 mmHg 94%
11:00 -3°C° 0.2 mm 4 mps 729 mmHg 92%
12:00 -2°C° 0.2 mm 4 mps 729 mmHg 91%
13:00 -1°C° 0.2 mm 3 mps 729 mmHg 90%
14:00 -1°C° 0 mm 3 mps 729 mmHg 90%
15:00 -1°C° 0 mm 3 mps 728 mmHg 91%
16:00 -1°C° 0 mm 3 mps 728 mmHg 91%
17:00 -1°C° 0.1 mm 3 mps 728 mmHg 91%
18:00 -1°C° 0.1 mm 3 mps 729 mmHg 92%
19:00 -2°C° 0.1 mm 3 mps 729 mmHg 92%
20:00 -2°C° 0 mm 3 mps 729 mmHg 91%
21:00 -2°C° 0 mm 3 mps 729 mmHg 91%
22:00 -2°C° 0 mm 3 mps 729 mmHg 90%
23:00 -2°C° 0.1 mm 3 mps 729 mmHg 90%

4 Diciembre, Viernes

Tiempo Temperatura Precipitaciones Viento Presión Humedad
00:00 -2°C° 0.1 mm 2 mps 729 mmHg 89%
01:00 -2°C° 0.1 mm 2 mps 729 mmHg 89%
02:00 -2°C° 0 mm 2 mps 729 mmHg 89%
03:00 -2°C° 0 mm 2 mps 729 mmHg 88%
04:00 -2°C° 0 mm 2 mps 729 mmHg 88%
05:00 -2°C° 0.1 mm 2 mps 729 mmHg 90%
06:00 -2°C° 0.1 mm 3 mps 729 mmHg 91%
07:00 -2°C° 0.1 mm 3 mps 730 mmHg 92%
08:00 -2°C° 0.1 mm 3 mps 730 mmHg 93%
09:00 -1°C° 0.1 mm 3 mps 730 mmHg 94%
10:00 -2°C° 0.1 mm 4 mps 730 mmHg 94%
11:00 -2°C° 0.5 mm 4 mps 730 mmHg 95%
12:00 -2°C° 0.5 mm 4 mps 730 mmHg 95%
13:00 -2°C° 0.5 mm 4 mps 730 mmHg 96%
14:00 -2°C° 0.4 mm 4 mps 729 mmHg 96%
15:00 -2°C° 0.4 mm 4 mps 729 mmHg 96%
16:00 -1°C° 0.4 mm 3 mps 729 mmHg 97%
17:00 -2°C° 0.6 mm 4 mps 729 mmHg 97%
18:00 -1°C° 0.6 mm 4 mps 729 mmHg 97%
19:00 -1°C° 0.6 mm 4 mps 729 mmHg 97%
20:00 -1°C° 0.8 mm 4 mps 729 mmHg 97%
21:00 0°C° 0.8 mm 4 mps 729 mmHg 97%
22:00 0°C° 0.8 mm 4 mps 728 mmHg 96%
23:00 0°C° 0.5 mm 4 mps 728 mmHg 96%

5 Diciembre, Sábado

Tiempo Temperatura Precipitaciones Viento Presión Humedad
00:00 +1°C° 0.5 mm 5 mps 728 mmHg 96%
01:00 +1°C° 0.5 mm 5 mps 728 mmHg 95%
02:00 0°C° 0.1 mm 5 mps 728 mmHg 95%
03:00 0°C° 0.1 mm 5 mps 727 mmHg 94%
04:00 0°C° 0.1 mm 5 mps 727 mmHg 94%
05:00 0°C° 0.1 mm 5 mps 727 mmHg 93%
06:00 0°C° 0.1 mm 5 mps 727 mmHg 93%
07:00 0°C° 0.1 mm 5 mps 727 mmHg 92%
08:00 0°C° 0.4 mm 5 mps 727 mmHg 94%
09:00 0°C° 0.4 mm 5 mps 726 mmHg 95%
10:00 0°C° 0.4 mm 5 mps 726 mmHg 96%
11:00 +1°C° 0.9 mm 5 mps 726 mmHg 96%
12:00 +1°C° 0.9 mm 4 mps 726 mmHg 96%
13:00 +1°C° 0.9 mm 4 mps 726 mmHg 96%
14:00 +1°C° 0.2 mm 4 mps 726 mmHg 96%
15:00 +1°C° 0.2 mm 4 mps 726 mmHg 96%
16:00 +1°C° 0.2 mm 4 mps 726 mmHg 95%
17:00 +1°C° 0.2 mm 5 mps 726 mmHg 96%
18:00 +1°C° 0.2 mm 5 mps 726 mmHg 96%
19:00 +1°C° 0.2 mm 5 mps 726 mmHg 96%
20:00 +1°C° 0.5 mm 5 mps 726 mmHg 95%
21:00 +1°C° 0.5 mm 5 mps 726 mmHg 95%
22:00 +1°C° 0.5 mm 5 mps 726 mmHg 94%
23:00 +1°C° 0.7 mm 5 mps 726 mmHg 94%
Mostrar más

Necesitamos Su Consentimiento

Meteoprog y nuestros Proveedores de Servicios pueden almacenar y acceder a sus datos personales como cookies, identificadores de dispositivo u otras tecnologías similares de su dispositivo y procesar dichos datos para personalizar contenido y anuncios, además de ofrecer funciones de redes sociales y analizar el tráfico.

  • Almacenar y/o acceder a información en su dispositivo

    Se puede almacenar o acceder a cookies, identificadores de dispositivo u otra información de su dispositivo para los fines anteriormente indicados.

  • Anuncios y contenido personalizados, medición de anuncios y contenido, percepciones del público, y desarrollo de productos

    Los anuncios y el contenido pueden personalizarse en base a su perfil. Se pueden añadir más datos para personalizar mejor los anuncios y contenidos. Se puede medir el rendimiento de los anuncios y contenidos. Se puede obtener la percepción sobre el público que ha visto los anuncios y contenidos. Dichos datos pueden usarse para desarrollar o mejorar la experiencia del usuario, sistemas y software.

Al hacer clic en ‘Estoy De Acuerdo’ usted permitirá el uso de las cookies, identificadores de dispositivo, balizas web u otras tecnologías similares indicadas. Su configuración puede cambiarse desde el navegador de su dispositivo.

Para ciertos fines, los intereses legítimos pueden ser considerados por encima del consentimiento. Puede leer más sobre ello en nuestra Política de Privacidad y Cookies.